Regional Weather Roundup
Issued by NWS Austin/San Antonio, TX

Home | Current Version | Previous Version | Text Only | Print | Product List | Glossary On
Versions: 1 2 3 4 5 6 7 8 9 10 11 12 13 14 15 16 17 18 19 20 21 22 23 24 25 26 27 28 29 30 31 32 33 34 35 36 37 38 39 40 41 42 43 44 45 46 47 48 49 50
000
ASUS44 KEWX 192301
RWREWX
SOUTH TEXAS REGIONAL WEATHER ROUNDUP
NATIONAL WEATHER SERVICE AUSTIN/SAN ANTONIO TX
500 PM CST MON FEB 19 2018

NOTE: "FAIR" INDICATED FEW OR NO CLOUDS BELOW 12,000 FEET WITH NO
SIGNIFICANT WEATHER AND/OR OBSTRUCTIONS TO VISIBILITY.

* - THESE STATIONS ARE NOT NWS OR FAA STATIONS...AND ARE NOT SUBJECT
    TO NWS AND FAA QUALITY CONTROL.

TXZ171-172-183>190-200000-
TEXAS HILL COUNTRY AND EDWARDS PLATEAU

CITY           SKY/WX    TMP DP  RH WIND       PRES   REMARKS
JUNCTION       MOSUNNY   77  59  53 S12G22    29.78S
*LLANO         PTSUNNY   79  63  57 S14G28    29.82S
BURNET         PTSUNNY   75  63  66 S7        29.83S
*HORSESHOE BAY PTSUNNY   77  64  63 S12       29.80S
*KERRVILLE     CLOUDY    76  63  63 S17       29.82S
*FREDERICKSBRG MOSUNNY   75  59  57 S16G22    29.82S
*ROCKSPRINGS   MOSUNNY   72  59  64 SE13G20   29.86S
*BOERNE STAGE  CLOUDY    73  64  73 SE12G20   29.84R
*CASTROVILLE   CLOUDY    80  63  56 SE12      29.82R
HONDO          LGT RAIN  79  65  62 SE13      29.75F
*UVALDE        CLOUDY    79  62  55 SE9       29.77F
DEL RIO        PTSUNNY   82  59  45 SE8G17    29.71S
LAUGHLIN AFB   MOSUNNY   82  61  49 SE15      29.73S
CARRIZO SPRGS  CLOUDY    82  61  47 S13       29.74S
*EAGLE PASS    CLEAR     84  59  42 SE9G16    29.73S
*FAITH RANCH   SUNNY     82  61  47 SE8G14    29.74F
$$

TXZ173-191>194-202-209-217>225-228-200000-
CENTRAL AND SOUTH CENTRAL TEXAS

CITY           SKY/WX    TMP DP  RH WIND       PRES   REMARKS
GEORGETOWN     CLOUDY    75  65  70 S15G25    29.83
AUSTIN/BERGSTM CLOUDY    76  67  73 S23G35    29.81S
AUSTIN/MABRY   CLOUDY    76  65  68 S10G26    29.82S
*AUSTIN/EXEC   NOT AVBL
*LAGO VISTA    CLOUDY    74  65  73 S13G23    29.82F
SAN MARCOS     CLOUDY    78  66  66 SE22G29   29.82S
NEW BRAUNFELS  CLOUDY    77  65  66 S26G33    29.80S
RANDOLPH AFB   CLOUDY    78  67  68 SE18G25   29.81R
PT SAN ANTONIO CLOUDY    78  67  67 SE20G28   29.79R
SAN ANTONIO    CLOUDY    78  66  66 SE23      29.81R
STINSON FIELD  CLOUDY    80  67  64 SE17      29.79R
*LA GRANGE     MOSUNNY   76  68  75 S16G24    29.86R
*GIDDINGS      MOSUNNY   75  64  67 S18G26    29.87S
*GONZALES      CLOUDY    76  67  74 SE18G28   29.84S
$$

TXZ163>164-176>182-195>201-210>213-226-227-235-200000-
SOUTHEAST TEXAS

CITY           SKY/WX    TMP DP  RH WIND       PRES   REMARKS
COLLEGE STN    CLOUDY    75  62  64 S24       29.89R
*BRYAN         CLOUDY    75  61  60 S25G32    29.89S
*CALDWELL      PTSUNNY   76  64  66 SE26G37   29.87F
*CROCKETT      PTSUNNY   75  63  64 S18G26    29.94R
*BRENHAM       CLOUDY    75  65  71 SE20G26   29.90F
HUNTSVILLE     CLOUDY    76  62  62 S17G26    29.92R
CONROE         CLOUDY    75  65  70 S16       29.94R
HOUSTON BUSH   CLOUDY    75  66  73 S14G26    29.94S
HOUSTON HOBBY  CLOUDY    73  69  87 SE16      29.94F
*HOUSTON SW AP CLOUDY    72  67  86 SE9G17    29.95S
PEARLAND       CLOUDY    73  69  87 SE10G23   29.96S
HOUSTON HOOKS  CLOUDY    76  66  71 S14G22    29.93S
ELLINGTON FLD  CLOUDY    73  66  78 SE17      29.96S
SUGAR LAND     CLOUDY    76  67  73 SE15      29.93S
*HOUSTON EXEC  CLOUDY    75  68  78 S16G24    29.94R
*CLEVELAND MUN CLOUDY    73  63  69 S13G24    29.97S
*WHARTON       CLOUDY    75  66  74 SE14G24   29.93R
*COLUMBUS      CLOUDY    74  67  78 SW12G17   29.91S
*EAGLE LAKE    CLOUDY    75  69  81 S14       29.91S
$$

TXZ214>216-236>238-200000-
THE UPPER TEXAS COAST

CITY           SKY/WX    TMP DP  RH WIND       PRES   REMARKS
*ORANGE        CLOUDY    75  70  85 S13G23    30.03S
PORT ARTHUR    CLOUDY    74  67  78 SE16G26   30.00S
GALVESTON      CLOUDY    71  68  90 SE17      29.97S
ANGLETON       CLOUDY    74  68  81 SE16      29.94S
*BAY CITY      CLOUDY    76  70  82 SE14G23   29.93S
PALACIOS       CLOUDY    75  71  87 SE20      29.91R
$$

TXZ229>234-239>247-200000-
TEXAS COASTAL BEND AND RIO GRANDE PLAINS

CITY           SKY/WX    TMP DP  RH WIND       PRES   REMARKS
VICTORIA       CLOUDY    78  66  66 S30G38    29.88S
*BEEVILLE      MOSUNNY   77  69  74 SE20G28   29.82S
ROCKPORT       SUNNY     74  68  81 SE17      29.87S HAZE
*PORT ARANSAS  NOT AVBL
*PORT LAVACA   CLOUDY    75  68  77 SE18G26   29.90S
*INGLESIDE     MOSUNNY   76  70  81 MISG      29.86S
CORPUS CHRISTI PTSUNNY   77  70  79 SE31G40   29.84S
CORPUS NAS     PTSUNNY   75  70  84 SE23G36   29.85S
*ROBSTOWN      SUNNY     78  69  72 SE31G37   29.83S
ALICE          MOSUNNY   81  68  64 SE17G29   29.79S
KINGSVILLE NAS MOSUNNY   80  70  71 SE24G32   29.81R
COTULLA        NOT AVBL
LAREDO         CLOUDY    89  61  38 SE15      29.73F
$$

TXZ248>255-200000-
DEEP SOUTH TEXAS

CITY           SKY/WX    TMP DP  RH WIND       PRES   REMARKS
BROWNSVILLE    PTSUNNY   80  71  74 S28G37    29.85S
PORT ISABEL    PTSUNNY   79  68  69 S21G35    29.84R
*SOUTH PADRE   NOT AVBL
HARLINGEN      MOSUNNY   79  69  71 S26G37    29.82R
*HEBBRONVILLE  SUNNY     84  64  50 S22G30    29.79S
MCALLEN        MOSUNNY   85  69  58 SE23G33   29.79F
*WESLACO       NOT AVBL
FALFURRIAS     SUNNY     85  65  51 SE22      29.80R
EDINBURG       FAIR      85  65  52 SE21G30   29.81S
*ZAPATA        FAIR      89  56  32 SE13G20   29.73S
$$

TXZ213>215-236>238-242>244-246-247-251-254-255-200000-
CMAN STATIONS

STATION/POSITION TIME  TEMP    WIND        PRES    WAVE
                       AIR SEA DIR/SP/G            HT/PER
                 (UTC) (F)     (DEG/KT/KT) (MB)    (FT/S)
SABINE PASS      2230   69 69  130/ 14/ 19 1017.8
SEA RIM ST PARK  2200   68     130/ 11/ 13 1016.4
NORTH JETTY/GLS  2230      62  120/ 16/ 17 1014.5
EAGLE POINT      2230   67 69  150/ 14/ 16 1014.7
MORGANS POINT    2230   69 63  130/ 10/ 14 1014.6
PORT O`CONNOR    2230   68 64  130/ 15/ 17 1012.0
MALAQUITE BEACH  2230   81 64  120/ 16/ 17 1010.6
BAFFIN BAY       2230   71 76  130/ 20/ 27 1010.6
PORT ISABEL      2224   73 64  150/ 17/ 22 1010.8
$$




USA.gov is the U.S. government's official web portal to all federal, state and local government web resources and services.